When you browse on this site, cookies collect data to enhance your experience and personalize the content and advertising you see.
Visit our Privacy Policy to learn more. By continuing to use the site, you agree to this use of cookies and data.
  • In France
  • List of Countries
  • For 7 days
  • Water Temperature
  • Weather Map
  • Weather Widgets
  • user-avatar
    Login

    Hourly Weather Zaafrana

    Today, 21 November, Thursday

    Time Temperature Precipitation Wind Pressure Humidity
    00:00 +14°C° 0 mm 2 mps 747 mmHg 41%
    01:00 +13°C° 0 mm 2 mps 746 mmHg 41%
    02:00 +13°C° 0 mm 2 mps 746 mmHg 41%
    03:00 +13°C° 0 mm 2 mps 746 mmHg 41%
    04:00 +13°C° 0 mm 1 mps 746 mmHg 41%
    05:00 +13°C° 0 mm 1 mps 746 mmHg 41%
    06:00 +15°C° 0 mm 1 mps 746 mmHg 34%
    07:00 +18°C° 0 mm 1 mps 747 mmHg 27%
    08:00 +20°C° 0 mm 1 mps 747 mmHg 20%
    09:00 +21°C° 0 mm 1 mps 747 mmHg 19%
    10:00 +23°C° 0 mm 1 mps 747 mmHg 18%
    11:00 +24°C° 0 mm 2 mps 747 mmHg 17%
    12:00 +25°C° 0 mm 2 mps 746 mmHg 18%
    13:00 +25°C° 0 mm 2 mps 746 mmHg 18%
    14:00 +26°C° 0 mm 2 mps 745 mmHg 18%
    15:00 +23°C° 0 mm 2 mps 745 mmHg 24%
    16:00 +19°C° 0 mm 2 mps 745 mmHg 31%
    17:00 +16°C° 0 mm 1 mps 745 mmHg 37%
    18:00 +16°C° 0 mm 1 mps 745 mmHg 39%
    19:00 +15°C° 0 mm 1 mps 745 mmHg 41%
    20:00 +13°C° 0 mm 0 mps 745 mmHg 43%
    21:00 +14°C° 0 mm 0 mps 745 mmHg 40%
    22:00 +14°C° 0 mm 0 mps 746 mmHg 37%
    23:00 +15°C° 0 mm 0 mps 746 mmHg 34%

    Tomorrow, 22 November, Friday

    Time Temperature Precipitation Wind Pressure Humidity
    00:00 +14°C° 0 mm 0 mps 745 mmHg 36%
    01:00 +14°C° 0 mm 0 mps 745 mmHg 38%
    02:00 +13°C° 0 mm 0 mps 745 mmHg 40%
    03:00 +13°C° 0 mm 0 mps 745 mmHg 42%
    04:00 +12°C° 0 mm 0 mps 745 mmHg 44%
    05:00 +13°C° 0 mm 1 mps 745 mmHg 46%
    06:00 +15°C° 0 mm 1 mps 745 mmHg 38%
    07:00 +19°C° 0 mm 1 mps 746 mmHg 29%
    08:00 +21°C° 0 mm 1 mps 746 mmHg 21%
    09:00 +22°C° 0 mm 1 mps 746 mmHg 19%
    10:00 +24°C° 0 mm 2 mps 746 mmHg 16%
    11:00 +26°C° 0 mm 2 mps 746 mmHg 14%
    12:00 +26°C° 0 mm 3 mps 745 mmHg 13%
    13:00 +26°C° 0 mm 3 mps 745 mmHg 13%
    14:00 +27°C° 0 mm 3 mps 744 mmHg 12%
    15:00 +24°C° 0 mm 3 mps 744 mmHg 18%
    16:00 +20°C° 0 mm 3 mps 745 mmHg 24%
    17:00 +18°C° 0 mm 2 mps 745 mmHg 30%
    18:00 +17°C° 0 mm 2 mps 745 mmHg 34%
    19:00 +16°C° 0 mm 2 mps 746 mmHg 38%
    20:00 +15°C° 0 mm 2 mps 746 mmHg 41%
    21:00 +15°C° 0 mm 2 mps 746 mmHg 45%
    22:00 +14°C° 0 mm 2 mps 747 mmHg 49%
    23:00 +14°C° 0 mm 2 mps 747 mmHg 52%

    Day after tomorrow, 23 November, Saturday

    Time Temperature Precipitation Wind Pressure Humidity
    00:00 +14°C° 0 mm 2 mps 747 mmHg 56%
    01:00 +14°C° 0 mm 2 mps 746 mmHg 60%
    02:00 +14°C° 0 mm 2 mps 746 mmHg 64%
    03:00 +13°C° 0 mm 2 mps 746 mmHg 65%
    04:00 +13°C° 0 mm 2 mps 746 mmHg 67%
    05:00 +13°C° 0 mm 2 mps 746 mmHg 68%
    06:00 +15°C° 0 mm 2 mps 746 mmHg 60%
    07:00 +16°C° 0 mm 2 mps 747 mmHg 53%
    08:00 +18°C° 0 mm 2 mps 747 mmHg 45%
    09:00 +20°C° 0 mm 3 mps 747 mmHg 40%
    10:00 +21°C° 0 mm 3 mps 747 mmHg 36%
    11:00 +24°C° 0 mm 3 mps 747 mmHg 31%
    12:00 +23°C° 0 mm 4 mps 747 mmHg 29%
    13:00 +25°C° 0 mm 4 mps 746 mmHg 27%
    14:00 +25°C° 0 mm 4 mps 745 mmHg 25%
    15:00 +22°C° 0 mm 4 mps 745 mmHg 32%
    16:00 +20°C° 0 mm 3 mps 745 mmHg 39%
    17:00 +18°C° 0 mm 3 mps 745 mmHg 46%
    18:00 +17°C° 0 mm 3 mps 746 mmHg 51%
    19:00 +16°C° 0 mm 3 mps 746 mmHg 56%
    20:00 +16°C° 0 mm 3 mps 746 mmHg 61%
    21:00 +14°C° 0 mm 3 mps 746 mmHg 66%
    22:00 +14°C° 0 mm 3 mps 746 mmHg 71%
    23:00 +15°C° 0 mm 2 mps 746 mmHg 76%

    24 November, Sunday

    Time Temperature Precipitation Wind Pressure Humidity
    00:00 +14°C° 0 mm 2 mps 746 mmHg 77%
    01:00 +14°C° 0 mm 2 mps 746 mmHg 77%
    02:00 +14°C° 0 mm 2 mps 746 mmHg 78%
    03:00 +13°C° 0 mm 2 mps 746 mmHg 77%
    04:00 +13°C° 0 mm 2 mps 746 mmHg 77%
    05:00 +13°C° 0 mm 2 mps 746 mmHg 76%
    06:00 +15°C° 0 mm 2 mps 746 mmHg 66%
    07:00 +17°C° 0 mm 2 mps 746 mmHg 56%
    08:00 +19°C° 0 mm 2 mps 746 mmHg 46%
    09:00 +20°C° 0 mm 2 mps 746 mmHg 40%
    10:00 +23°C° 0 mm 2 mps 746 mmHg 35%
    11:00 +24°C° 0 mm 2 mps 746 mmHg 29%
    12:00 +25°C° 0 mm 2 mps 746 mmHg 27%
    13:00 +25°C° 0 mm 2 mps 745 mmHg 26%
    14:00 +26°C° 0 mm 3 mps 745 mmHg 24%
    15:00 +24°C° 0 mm 3 mps 745 mmHg 31%
    16:00 +20°C° 0 mm 3 mps 745 mmHg 37%
    17:00 +18°C° 0 mm 3 mps 745 mmHg 44%
    18:00 +17°C° 0 mm 3 mps 745 mmHg 48%
    19:00 +17°C° 0 mm 2 mps 745 mmHg 51%
    20:00 +16°C° 0 mm 2 mps 745 mmHg 55%
    21:00 +16°C° 0 mm 2 mps 745 mmHg 57%
    22:00 +15°C° 0 mm 2 mps 745 mmHg 59%
    23:00 +15°C° 0 mm 1 mps 745 mmHg 62%

    25 November, Monday

    Time Temperature Precipitation Wind Pressure Humidity
    00:00 +14°C° 0 mm 1 mps 745 mmHg 61%
    01:00 +14°C° 0 mm 1 mps 745 mmHg 61%
    02:00 +14°C° 0 mm 1 mps 744 mmHg 61%
    03:00 +13°C° 0 mm 0 mps 744 mmHg 61%
    04:00 +13°C° 0 mm 0 mps 744 mmHg 61%
    05:00 +12°C° 0 mm 0 mps 744 mmHg 61%
    06:00 +15°C° 0 mm 0 mps 745 mmHg 50%
    07:00 +20°C° 0 mm 1 mps 745 mmHg 38%
    08:00 +22°C° 0 mm 1 mps 745 mmHg 27%
    09:00 +24°C° 0 mm 1 mps 745 mmHg 25%
    10:00 +26°C° 0 mm 2 mps 745 mmHg 23%
    11:00 +27°C° 0 mm 3 mps 745 mmHg 21%
    12:00 +28°C° 0 mm 3 mps 744 mmHg 20%
    13:00 +29°C° 0 mm 3 mps 744 mmHg 20%
    14:00 +30°C° 0 mm 3 mps 743 mmHg 20%
    15:00 +27°C° 0 mm 3 mps 743 mmHg 24%
    16:00 +25°C° 0 mm 2 mps 743 mmHg 29%
    17:00 +21°C° 0 mm 2 mps 743 mmHg 34%
    18:00 +21°C° 0 mm 2 mps 743 mmHg 34%
    19:00 +21°C° 0 mm 2 mps 743 mmHg 34%
    20:00 +20°C° 0 mm 2 mps 743 mmHg 34%
    21:00 +20°C° 0 mm 2 mps 743 mmHg 36%
    22:00 +20°C° 0 mm 3 mps 743 mmHg 37%
    23:00 +20°C° 0 mm 3 mps 743 mmHg 39%

    26 November, Tuesday

    Time Temperature Precipitation Wind Pressure Humidity
    00:00 +20°C° 0 mm 2 mps 743 mmHg 39%
    01:00 +19°C° 0 mm 2 mps 743 mmHg 40%
    02:00 +19°C° 0 mm 2 mps 743 mmHg 40%
    03:00 +19°C° 0 mm 3 mps 743 mmHg 40%
    04:00 +19°C° 0 mm 3 mps 743 mmHg 40%
    05:00 +19°C° 0 mm 3 mps 743 mmHg 39%
    06:00 +20°C° 0 mm 3 mps 743 mmHg 35%
    07:00 +22°C° 0 mm 3 mps 744 mmHg 30%
    08:00 +23°C° 0 mm 4 mps 744 mmHg 25%
    09:00 +26°C° 0 mm 4 mps 744 mmHg 23%
    10:00 +27°C° 0 mm 5 mps 744 mmHg 21%
    11:00 +29°C° 0 mm 5 mps 744 mmHg 18%
    12:00 +30°C° 0 mm 5 mps 743 mmHg 18%
    13:00 +30°C° 0 mm 5 mps 743 mmHg 17%
    14:00 +30°C° 0 mm 5 mps 743 mmHg 16%
    15:00 +28°C° 0 mm 5 mps 743 mmHg 19%
    16:00 +26°C° 0 mm 4 mps 743 mmHg 21%
    17:00 +24°C° 0 mm 3 mps 743 mmHg 24%
    18:00 +22°C° 0 mm 3 mps 743 mmHg 27%
    19:00 +22°C° 0 mm 3 mps 744 mmHg 30%
    20:00 +21°C° 0 mm 3 mps 744 mmHg 33%
    21:00 +20°C° 0 mm 3 mps 744 mmHg 36%
    22:00 +19°C° 0 mm 3 mps 744 mmHg 39%
    23:00 +19°C° 0 mm 3 mps 744 mmHg 42%
    Show more